Year,Month,Day,Hour,Minute,Value (Times are PST for temperature in C)
2015,07,03,00,00,20.70
2015,07,03,00,01,20.70
2015,07,03,00,02,20.70
2015,07,03,00,03,20.70
2015,07,03,00,04,20.70
2015,07,03,00,05,20.70
2015,07,03,00,06,20.70
2015,07,03,00,07,20.70
2015,07,03,00,08,20.70
2015,07,03,00,09,20.70
2015,07,03,00,10,20.70
2015,07,03,00,11,20.80
2015,07,03,00,12,20.80
2015,07,03,00,13,20.80
2015,07,03,00,14,20.80
2015,07,03,00,15,20.80
2015,07,03,00,16,20.70
2015,07,03,00,17,20.70
2015,07,03,00,18,20.70
2015,07,03,00,19,20.70
2015,07,03,00,20,20.60
2015,07,03,00,21,20.60
2015,07,03,00,22,20.60
2015,07,03,00,23,20.60
2015,07,03,00,24,20.60
2015,07,03,00,25,20.60
2015,07,03,00,26,20.60
2015,07,03,00,27,20.60
2015,07,03,00,28,20.60
2015,07,03,00,29,20.50
2015,07,03,00,30,20.50
2015,07,03,00,31,20.50
2015,07,03,00,32,20.40
2015,07,03,00,33,20.40
2015,07,03,00,34,20.30
2015,07,03,00,35,20.20
2015,07,03,00,36,20.20
2015,07,03,00,37,20.20
2015,07,03,00,38,20.10
2015,07,03,00,39,20.10
2015,07,03,00,40,20.00
2015,07,03,00,41,19.90
2015,07,03,00,42,19.90
2015,07,03,00,43,19.90
2015,07,03,00,44,19.80
2015,07,03,00,45,19.80
2015,07,03,00,46,19.70
2015,07,03,00,47,19.70
2015,07,03,00,48,19.60
2015,07,03,00,49,19.60
2015,07,03,00,50,19.60
2015,07,03,00,51,19.60
2015,07,03,00,52,19.60
2015,07,03,00,53,19.60
2015,07,03,00,54,19.60
2015,07,03,00,55,19.60
2015,07,03,00,56,19.60
2015,07,03,00,57,19.60
2015,07,03,00,58,19.60
2015,07,03,00,59,19.60
2015,07,03,01,00,19.60
2015,07,03,01,01,19.60
2015,07,03,01,02,19.50
2015,07,03,01,03,19.50
2015,07,03,01,04,19.50
2015,07,03,01,05,19.50
2015,07,03,01,06,19.40
2015,07,03,01,07,19.40
2015,07,03,01,08,19.40
2015,07,03,01,09,19.40
2015,07,03,01,10,19.40
2015,07,03,01,11,19.40
2015,07,03,01,12,19.40
2015,07,03,01,13,19.40
2015,07,03,01,14,19.30
2015,07,03,01,15,19.30
2015,07,03,01,16,19.30
2015,07,03,01,17,19.30
2015,07,03,01,18,19.30
2015,07,03,01,19,19.30
2015,07,03,01,20,19.20
2015,07,03,01,21,19.20
2015,07,03,01,22,19.20
2015,07,03,01,23,19.10
2015,07,03,01,24,19.10
2015,07,03,01,25,19.10
2015,07,03,01,26,19.10
2015,07,03,01,27,19.10
2015,07,03,01,28,19.10
2015,07,03,01,29,19.10
2015,07,03,01,30,19.10
2015,07,03,01,31,19.10
2015,07,03,01,32,19.10
2015,07,03,01,33,19.20
2015,07,03,01,34,19.20
2015,07,03,01,35,19.10
2015,07,03,01,36,19.10
2015,07,03,01,37,19.10
2015,07,03,01,38,19.10
2015,07,03,01,39,19.10
2015,07,03,01,40,19.10
2015,07,03,01,41,19.10
2015,07,03,01,42,19.10
2015,07,03,01,43,19.10
2015,07,03,01,44,19.10
2015,07,03,01,45,19.10
2015,07,03,01,46,19.10
2015,07,03,01,47,19.00
2015,07,03,01,48,18.90
2015,07,03,01,49,18.90
2015,07,03,01,50,18.90
2015,07,03,01,51,18.90
2015,07,03,01,52,18.90
2015,07,03,01,53,18.90
2015,07,03,01,54,18.90
2015,07,03,01,55,18.90
2015,07,03,01,56,18.90
2015,07,03,01,57,18.90
2015,07,03,01,58,18.80
2015,07,03,01,59,18.80
2015,07,03,02,00,18.80
2015,07,03,02,01,18.70
2015,07,03,02,02,18.70
2015,07,03,02,03,18.70
2015,07,03,02,04,18.60
2015,07,03,02,05,18.60
2015,07,03,02,06,18.60
2015,07,03,02,07,18.60
2015,07,03,02,08,18.60
2015,07,03,02,09,18.70
2015,07,03,02,10,18.70
2015,07,03,02,11,18.70
2015,07,03,02,12,18.80
2015,07,03,02,13,18.80
2015,07,03,02,14,18.90
2015,07,03,02,15,18.90
2015,07,03,02,16,18.90
2015,07,03,02,17,18.90
2015,07,03,02,18,18.90
2015,07,03,02,19,18.90
2015,07,03,02,20,18.90
2015,07,03,02,21,18.90
2015,07,03,02,22,18.90
2015,07,03,02,23,18.90
2015,07,03,02,24,18.90
2015,07,03,02,25,18.90
2015,07,03,02,26,18.90
2015,07,03,02,27,18.90
2015,07,03,02,28,18.90
2015,07,03,02,29,18.80
2015,07,03,02,30,18.80
2015,07,03,02,31,18.80
2015,07,03,02,32,18.80
2015,07,03,02,33,18.80
2015,07,03,02,34,18.70
2015,07,03,02,35,18.70
2015,07,03,02,36,18.70
2015,07,03,02,37,18.70
2015,07,03,02,38,18.60
2015,07,03,02,39,18.60
2015,07,03,02,40,18.60
2015,07,03,02,41,18.60
2015,07,03,02,42,18.60
2015,07,03,02,43,18.60
2015,07,03,02,44,18.60
2015,07,03,02,45,18.50
2015,07,03,02,46,18.50
2015,07,03,02,47,18.50
2015,07,03,02,48,18.50
2015,07,03,02,49,18.40
2015,07,03,02,50,18.40
2015,07,03,02,51,18.40
2015,07,03,02,52,18.40
2015,07,03,02,53,18.40
2015,07,03,02,54,18.40
2015,07,03,02,55,18.40
2015,07,03,02,56,18.40
2015,07,03,02,57,18.30
2015,07,03,02,58,18.30
2015,07,03,02,59,18.30
2015,07,03,03,00,18.30
2015,07,03,03,01,18.30
2015,07,03,03,02,18.30
2015,07,03,03,03,18.30
2015,07,03,03,04,18.30
2015,07,03,03,05,18.20
2015,07,03,03,06,18.20
2015,07,03,03,07,18.20
2015,07,03,03,08,18.20
2015,07,03,03,09,18.20
2015,07,03,03,10,18.20
2015,07,03,03,11,18.20
2015,07,03,03,12,18.20
2015,07,03,03,13,18.20
2015,07,03,03,14,18.10
2015,07,03,03,15,18.10
2015,07,03,03,16,18.10
2015,07,03,03,17,18.10
2015,07,03,03,18,18.10
2015,07,03,03,19,17.90
2015,07,03,03,20,17.90
2015,07,03,03,21,17.90
2015,07,03,03,22,17.70
2015,07,03,03,23,17.50
2015,07,03,03,24,17.30
2015,07,03,03,25,17.00
2015,07,03,03,26,16.70
2015,07,03,03,27,16.50
2015,07,03,03,28,16.30
2015,07,03,03,29,16.10
2015,07,03,03,30,15.80
2015,07,03,03,31,15.60
2015,07,03,03,32,15.40
2015,07,03,03,33,15.20
2015,07,03,03,34,15.10
2015,07,03,03,35,15.00
2015,07,03,03,36,14.90
2015,07,03,03,37,14.80
2015,07,03,03,38,14.70
2015,07,03,03,39,14.70
2015,07,03,03,40,14.60
2015,07,03,03,41,14.60
2015,07,03,03,42,14.50
2015,07,03,03,43,14.50
2015,07,03,03,44,14.50
2015,07,03,03,45,14.50
2015,07,03,03,46,14.40
2015,07,03,03,47,14.40
2015,07,03,03,48,14.50
2015,07,03,03,49,14.50
2015,07,03,03,50,14.50
2015,07,03,03,51,14.60
2015,07,03,03,52,14.60
2015,07,03,03,53,14.60
2015,07,03,03,54,14.60
2015,07,03,03,55,14.70
2015,07,03,03,56,14.70
2015,07,03,03,57,14.70
2015,07,03,03,58,14.70
2015,07,03,03,59,14.70
2015,07,03,04,00,14.80
2015,07,03,04,01,14.80
2015,07,03,04,02,14.80
2015,07,03,04,03,14.80
2015,07,03,04,04,14.90
2015,07,03,04,05,15.00
2015,07,03,04,06,15.00
2015,07,03,04,07,15.00
2015,07,03,04,08,15.00
2015,07,03,04,09,15.10
2015,07,03,04,10,15.10
2015,07,03,04,11,15.10
2015,07,03,04,12,15.00
2015,07,03,04,13,14.90
2015,07,03,04,14,14.80
2015,07,03,04,15,14.70
2015,07,03,04,16,14.60
2015,07,03,04,17,14.50
2015,07,03,04,18,14.40
2015,07,03,04,19,14.30
2015,07,03,04,20,14.20
2015,07,03,04,21,14.20
2015,07,03,04,22,14.10
2015,07,03,04,23,14.00
2015,07,03,04,24,14.00
2015,07,03,04,25,13.90
2015,07,03,04,26,13.90
2015,07,03,04,27,13.90
2015,07,03,04,28,13.90
2015,07,03,04,29,13.90
2015,07,03,04,30,13.80
2015,07,03,04,31,13.80
2015,07,03,04,32,13.80
2015,07,03,04,33,13.80
2015,07,03,04,34,13.80
2015,07,03,04,35,13.70
2015,07,03,04,36,13.70
2015,07,03,04,37,13.70
2015,07,03,04,38,13.70
2015,07,03,04,39,13.70
2015,07,03,04,40,13.70
2015,07,03,04,41,13.70
2015,07,03,04,42,13.70
2015,07,03,04,43,13.70
2015,07,03,04,44,13.70
2015,07,03,04,45,13.70
2015,07,03,04,46,13.70
2015,07,03,04,47,13.70
2015,07,03,04,48,13.80
2015,07,03,04,49,13.80
2015,07,03,04,50,13.90
2015,07,03,04,51,13.90
2015,07,03,04,52,14.00
2015,07,03,04,53,14.00
2015,07,03,04,54,14.10
2015,07,03,04,55,14.20
2015,07,03,04,56,14.20
2015,07,03,04,57,14.30
2015,07,03,04,58,14.30
2015,07,03,04,59,14.40
2015,07,03,05,00,14.50
2015,07,03,05,01,14.60
2015,07,03,05,02,14.70
2015,07,03,05,03,14.80
2015,07,03,05,04,14.80
2015,07,03,05,05,14.80
2015,07,03,05,06,14.80
2015,07,03,05,07,14.80
2015,07,03,05,08,14.80
2015,07,03,05,09,14.80
2015,07,03,05,10,14.80
2015,07,03,05,11,14.90
2015,07,03,05,12,14.90
2015,07,03,05,13,15.00
2015,07,03,05,14,15.00
2015,07,03,05,15,15.00
2015,07,03,05,16,15.00
2015,07,03,05,17,15.10
2015,07,03,05,18,15.10
2015,07,03,05,19,15.10
2015,07,03,05,20,15.20
2015,07,03,05,21,15.20
2015,07,03,05,22,15.20
2015,07,03,05,23,15.20
2015,07,03,05,24,15.30
2015,07,03,05,25,15.30
2015,07,03,05,26,15.30
2015,07,03,05,27,15.30
2015,07,03,05,28,15.30
2015,07,03,05,29,15.40
2015,07,03,05,30,15.40
2015,07,03,05,31,15.40
2015,07,03,05,32,15.50
2015,07,03,05,33,15.50
2015,07,03,05,34,15.50
2015,07,03,05,35,15.50
2015,07,03,05,36,15.50
2015,07,03,05,37,15.50
2015,07,03,05,38,15.60
2015,07,03,05,39,15.60
2015,07,03,05,40,15.60
2015,07,03,05,41,15.70
2015,07,03,05,42,15.70
2015,07,03,05,43,15.80
2015,07,03,05,44,15.80
2015,07,03,05,45,15.90
2015,07,03,05,46,16.00
2015,07,03,05,47,16.10
2015,07,03,05,48,16.10
2015,07,03,05,49,16.20
2015,07,03,05,50,16.20
2015,07,03,05,51,16.20
2015,07,03,05,52,16.30
2015,07,03,05,53,16.30
2015,07,03,05,54,16.30
2015,07,03,05,55,16.40
2015,07,03,05,56,16.40
2015,07,03,05,57,16.40
2015,07,03,05,58,16.40
2015,07,03,05,59,16.40
2015,07,03,06,00,16.40
2015,07,03,06,01,16.50
2015,07,03,06,02,16.60
2015,07,03,06,03,16.60
2015,07,03,06,04,16.60
2015,07,03,06,05,16.70
2015,07,03,06,06,16.70
2015,07,03,06,07,16.70
2015,07,03,06,08,16.70
2015,07,03,06,09,16.70
2015,07,03,06,10,16.70
2015,07,03,06,11,16.80
2015,07,03,06,12,16.80
2015,07,03,06,13,16.80
2015,07,03,06,14,16.90
2015,07,03,06,15,16.90
2015,07,03,06,16,16.90
2015,07,03,06,17,17.00
2015,07,03,06,18,17.00
2015,07,03,06,19,17.10
2015,07,03,06,20,17.10
2015,07,03,06,21,17.20
2015,07,03,06,22,17.30
2015,07,03,06,23,17.30
2015,07,03,06,24,17.30
2015,07,03,06,25,17.30
2015,07,03,06,26,17.30
2015,07,03,06,27,17.40
2015,07,03,06,28,17.40
2015,07,03,06,29,17.50
2015,07,03,06,30,17.50
2015,07,03,06,31,17.60
2015,07,03,06,32,17.60
2015,07,03,06,33,17.70
2015,07,03,06,34,17.70
2015,07,03,06,35,17.70
2015,07,03,06,36,17.80
2015,07,03,06,37,17.80
2015,07,03,06,38,17.90
2015,07,03,06,39,17.90
2015,07,03,06,40,17.90
2015,07,03,06,41,17.90
2015,07,03,06,42,17.80
2015,07,03,06,43,17.70
2015,07,03,06,44,17.70
2015,07,03,06,45,17.60
2015,07,03,06,46,17.50
2015,07,03,06,47,17.50
2015,07,03,06,48,17.50
2015,07,03,06,49,17.40
2015,07,03,06,50,17.40
2015,07,03,06,51,17.30
2015,07,03,06,52,17.30
2015,07,03,06,53,17.30
2015,07,03,06,54,17.30
2015,07,03,06,55,17.30
2015,07,03,06,56,17.30
2015,07,03,06,57,17.20
2015,07,03,06,58,17.10
2015,07,03,06,59,17.00
2015,07,03,07,00,17.00
2015,07,03,07,01,17.00
2015,07,03,07,02,17.00
2015,07,03,07,03,17.00
2015,07,03,07,04,17.10
2015,07,03,07,05,17.10
2015,07,03,07,06,17.10
2015,07,03,07,07,17.20
2015,07,03,07,08,17.20
2015,07,03,07,09,17.30
2015,07,03,07,10,17.30
2015,07,03,07,11,17.40
2015,07,03,07,12,17.50
2015,07,03,07,13,17.60
2015,07,03,07,14,17.80
2015,07,03,07,15,17.90
2015,07,03,07,16,18.00
2015,07,03,07,17,18.10
2015,07,03,07,18,18.30
2015,07,03,07,19,18.40
2015,07,03,07,20,18.60
2015,07,03,07,21,18.70
2015,07,03,07,22,18.90
2015,07,03,07,23,19.10
2015,07,03,07,24,19.30
2015,07,03,07,25,19.50
2015,07,03,07,26,19.70
2015,07,03,07,27,19.80
2015,07,03,07,28,19.90
2015,07,03,07,29,20.00
2015,07,03,07,30,20.20
2015,07,03,07,31,20.20
2015,07,03,07,32,20.30
2015,07,03,07,33,20.30
2015,07,03,07,34,20.30
2015,07,03,07,35,20.20
2015,07,03,07,36,19.90
2015,07,03,07,37,19.80
2015,07,03,07,38,19.60
2015,07,03,07,39,19.50
2015,07,03,07,40,19.40
2015,07,03,07,41,19.30
2015,07,03,07,42,19.20
2015,07,03,07,43,19.20
2015,07,03,07,44,19.10
2015,07,03,07,45,19.00
2015,07,03,07,46,18.90
2015,07,03,07,47,18.90
2015,07,03,07,48,18.80
2015,07,03,07,49,18.60
2015,07,03,07,50,18.60
2015,07,03,07,51,18.50
2015,07,03,07,52,18.30
2015,07,03,07,53,18.20
2015,07,03,07,54,17.90
2015,07,03,07,55,17.70
2015,07,03,07,56,17.50
2015,07,03,07,57,17.30
2015,07,03,07,58,17.20
2015,07,03,07,59,17.00
2015,07,03,08,00,16.90
2015,07,03,08,01,16.80
2015,07,03,08,02,16.60
2015,07,03,08,03,16.30
2015,07,03,08,04,16.10
2015,07,03,08,05,15.90
2015,07,03,08,06,15.70
2015,07,03,08,07,15.60
2015,07,03,08,08,15.50
2015,07,03,08,09,15.50
2015,07,03,08,10,15.60
2015,07,03,08,11,15.60
2015,07,03,08,12,15.60
2015,07,03,08,13,15.70
2015,07,03,08,14,15.70
2015,07,03,08,15,15.80
2015,07,03,08,16,15.80
2015,07,03,08,17,15.80
2015,07,03,08,18,15.80
2015,07,03,08,19,15.90
2015,07,03,08,20,16.10
2015,07,03,08,21,16.10
2015,07,03,08,22,16.10
2015,07,03,08,23,16.20
2015,07,03,08,24,16.30
2015,07,03,08,25,16.50
2015,07,03,08,26,16.70
2015,07,03,08,27,16.80
2015,07,03,08,28,16.90
2015,07,03,08,29,16.90
2015,07,03,08,30,17.00
2015,07,03,08,31,17.00
2015,07,03,08,32,17.00
2015,07,03,08,33,16.90
2015,07,03,08,34,16.90
2015,07,03,08,35,16.80
2015,07,03,08,36,16.70
2015,07,03,08,37,16.70
2015,07,03,08,38,16.90
2015,07,03,08,39,16.90
2015,07,03,08,40,17.10
2015,07,03,08,41,17.30
2015,07,03,08,42,17.40
2015,07,03,08,43,17.50
2015,07,03,08,44,17.70
2015,07,03,08,45,17.80
2015,07,03,08,46,17.90
2015,07,03,08,47,18.00
2015,07,03,08,48,18.20
2015,07,03,08,49,18.30
2015,07,03,08,50,18.40
2015,07,03,08,51,18.50
2015,07,03,08,52,18.60
2015,07,03,08,53,18.70
2015,07,03,08,54,18.80
2015,07,03,08,55,18.90
2015,07,03,08,56,19.00
2015,07,03,08,57,19.10
2015,07,03,08,58,19.20
2015,07,03,08,59,19.40
2015,07,03,09,00,19.50
2015,07,03,09,01,19.60
2015,07,03,09,02,19.80
2015,07,03,09,03,19.90
2015,07,03,09,04,20.10
2015,07,03,09,05,20.20
2015,07,03,09,06,20.40
2015,07,03,09,07,20.50
2015,07,03,09,08,20.60
2015,07,03,09,09,20.70
2015,07,03,09,10,20.70
2015,07,03,09,11,20.70
2015,07,03,09,12,20.60
2015,07,03,09,13,20.50
2015,07,03,09,14,20.40
2015,07,03,09,15,20.30
2015,07,03,09,16,20.20
2015,07,03,09,17,20.20
2015,07,03,09,18,20.20
2015,07,03,09,19,20.20
2015,07,03,09,20,20.20
2015,07,03,09,21,20.30
2015,07,03,09,22,20.30
2015,07,03,09,23,20.40
2015,07,03,09,24,20.50
2015,07,03,09,25,20.60
2015,07,03,09,26,20.70
2015,07,03,09,27,20.70
2015,07,03,09,28,20.80
2015,07,03,09,29,20.90
2015,07,03,09,30,21.00
2015,07,03,09,31,21.10
2015,07,03,09,32,21.10
2015,07,03,09,33,21.30
2015,07,03,09,34,21.30
2015,07,03,09,35,21.30
2015,07,03,09,36,21.30
2015,07,03,09,37,21.30
2015,07,03,09,38,21.30
2015,07,03,09,39,21.40
2015,07,03,09,40,21.40
2015,07,03,09,41,21.40
2015,07,03,09,42,21.50
2015,07,03,09,43,21.60
2015,07,03,09,44,21.70
2015,07,03,09,45,21.70
2015,07,03,09,46,21.80
2015,07,03,09,47,21.80
2015,07,03,09,48,21.70
2015,07,03,09,49,21.70
2015,07,03,09,50,21.70
2015,07,03,09,51,21.70
2015,07,03,09,52,21.60
2015,07,03,09,53,21.60
2015,07,03,09,54,21.60
2015,07,03,09,55,21.60
2015,07,03,09,56,21.70
2015,07,03,09,57,21.70
2015,07,03,09,58,21.80
2015,07,03,09,59,21.70
2015,07,03,10,00,21.70
2015,07,03,10,01,21.70
2015,07,03,10,02,21.70
2015,07,03,10,03,21.70
2015,07,03,10,04,21.60
2015,07,03,10,05,21.60
2015,07,03,10,06,21.60
2015,07,03,10,07,21.60
2015,07,03,10,08,21.60
2015,07,03,10,09,21.50
2015,07,03,10,10,21.40
2015,07,03,10,11,21.40
2015,07,03,10,12,21.40
2015,07,03,10,13,21.40
2015,07,03,10,14,21.60
2015,07,03,10,15,21.60
2015,07,03,10,16,21.70
2015,07,03,10,17,21.70
2015,07,03,10,18,21.70
2015,07,03,10,19,21.70
2015,07,03,10,20,21.80
2015,07,03,10,21,21.80
2015,07,03,10,22,21.80
2015,07,03,10,23,21.80
2015,07,03,10,24,21.80
2015,07,03,10,25,21.70
2015,07,03,10,26,21.50
2015,07,03,10,27,21.30
2015,07,03,10,28,21.20
2015,07,03,10,29,21.00
2015,07,03,10,30,21.00
2015,07,03,10,31,20.90
2015,07,03,10,32,20.90
2015,07,03,10,33,20.90
2015,07,03,10,34,21.00
2015,07,03,10,35,21.10
2015,07,03,10,36,21.20
2015,07,03,10,37,21.30
2015,07,03,10,38,21.50
2015,07,03,10,39,21.60
2015,07,03,10,40,21.60
2015,07,03,10,41,21.60
2015,07,03,10,42,21.60
2015,07,03,10,43,21.50
2015,07,03,10,44,21.40
2015,07,03,10,45,21.40
2015,07,03,10,46,21.30
2015,07,03,10,47,21.20
2015,07,03,10,48,21.00
2015,07,03,10,49,20.90
2015,07,03,10,50,20.80
2015,07,03,10,51,20.70
2015,07,03,10,52,20.80
2015,07,03,10,53,20.80
2015,07,03,10,54,20.90
2015,07,03,10,55,21.00
2015,07,03,10,56,21.00
2015,07,03,10,57,21.10
2015,07,03,10,58,21.10
2015,07,03,10,59,21.30
2015,07,03,11,00,21.40
2015,07,03,11,01,21.40
2015,07,03,11,02,21.40
2015,07,03,11,03,21.30
2015,07,03,11,04,21.30
2015,07,03,11,05,21.10
2015,07,03,11,06,21.00
2015,07,03,11,07,21.00
2015,07,03,11,08,21.00
2015,07,03,11,09,21.10
2015,07,03,11,10,21.10
2015,07,03,11,11,21.20
2015,07,03,11,12,21.10
2015,07,03,11,13,21.10
2015,07,03,11,14,21.10
2015,07,03,11,15,21.10
2015,07,03,11,16,21.10
2015,07,03,11,17,21.00
2015,07,03,11,18,21.00
2015,07,03,11,19,21.10
2015,07,03,11,20,21.10
2015,07,03,11,21,21.10
2015,07,03,11,22,21.20
2015,07,03,11,23,21.20
2015,07,03,11,24,21.20
2015,07,03,11,25,21.30
2015,07,03,11,26,21.20
2015,07,03,11,27,21.20
2015,07,03,11,28,21.20
2015,07,03,11,29,21.00
2015,07,03,11,30,20.90
2015,07,03,11,31,20.80
2015,07,03,11,32,20.90
2015,07,03,11,33,20.90
2015,07,03,11,34,20.90
2015,07,03,11,35,20.90
2015,07,03,11,36,20.80
2015,07,03,11,37,20.80
2015,07,03,11,38,20.90
2015,07,03,11,39,20.80
2015,07,03,11,40,20.80
2015,07,03,11,41,20.90
2015,07,03,11,42,20.70
2015,07,03,11,43,20.70
2015,07,03,11,44,20.60
2015,07,03,11,45,20.60
2015,07,03,11,46,20.70
2015,07,03,11,47,20.70
2015,07,03,11,48,20.80
2015,07,03,11,49,20.90
2015,07,03,11,50,21.00
2015,07,03,11,51,21.00
2015,07,03,11,52,21.00
2015,07,03,11,53,21.00
2015,07,03,11,54,21.10
2015,07,03,11,55,21.00
2015,07,03,11,56,21.00
2015,07,03,11,57,21.00
2015,07,03,11,58,20.90
2015,07,03,11,59,20.90
2015,07,03,12,00,21.00
2015,07,03,12,01,21.00
2015,07,03,12,02,21.10
2015,07,03,12,03,21.20
2015,07,03,12,04,21.10
2015,07,03,12,05,21.10
2015,07,03,12,06,21.10
2015,07,03,12,07,21.10
2015,07,03,12,08,21.20
2015,07,03,12,09,21.20
2015,07,03,12,10,21.10
2015,07,03,12,11,21.10
2015,07,03,12,12,21.10
2015,07,03,12,13,21.10
2015,07,03,12,14,21.10
2015,07,03,12,15,21.10
2015,07,03,12,16,21.00
2015,07,03,12,17,20.90
2015,07,03,12,18,21.00
2015,07,03,12,19,21.10
2015,07,03,12,20,21.10
2015,07,03,12,21,21.00
2015,07,03,12,22,20.80
2015,07,03,12,23,20.70
2015,07,03,12,24,20.60
2015,07,03,12,25,20.70
2015,07,03,12,26,20.80
2015,07,03,12,27,20.80
2015,07,03,12,28,20.80
2015,07,03,12,29,20.80
2015,07,03,12,30,20.80
2015,07,03,12,31,20.90
2015,07,03,12,32,20.90
2015,07,03,12,33,20.90
2015,07,03,12,34,20.80
2015,07,03,12,35,20.80
2015,07,03,12,36,20.80
2015,07,03,12,37,20.80
2015,07,03,12,38,21.00
2015,07,03,12,39,21.00
2015,07,03,12,40,21.10
2015,07,03,12,41,21.10
2015,07,03,12,42,21.10
2015,07,03,12,43,21.20
2015,07,03,12,44,21.20
2015,07,03,12,45,21.30
2015,07,03,12,46,21.30
2015,07,03,12,47,21.30
2015,07,03,12,48,21.40
2015,07,03,12,49,21.40
2015,07,03,12,50,21.60
2015,07,03,12,51,21.60
2015,07,03,12,52,21.60
2015,07,03,12,53,21.70
2015,07,03,12,54,21.80
2015,07,03,12,55,21.80
2015,07,03,12,56,21.90
2015,07,03,12,57,22.00
2015,07,03,12,58,22.00
2015,07,03,12,59,21.90
2015,07,03,13,00,21.90
2015,07,03,13,01,21.90
2015,07,03,13,02,21.90
2015,07,03,13,03,21.90
2015,07,03,13,04,21.90
2015,07,03,13,05,21.90
2015,07,03,13,06,21.90
2015,07,03,13,07,21.90
2015,07,03,13,08,22.00
2015,07,03,13,09,22.00
2015,07,03,13,10,22.10
2015,07,03,13,11,22.20
2015,07,03,13,12,22.10
2015,07,03,13,13,22.20
2015,07,03,13,14,22.10
2015,07,03,13,15,22.10
2015,07,03,13,16,22.10
2015,07,03,13,17,22.10
2015,07,03,13,18,22.00
2015,07,03,13,19,21.90
2015,07,03,13,20,21.90
2015,07,03,13,21,21.90
2015,07,03,13,22,21.90
2015,07,03,13,23,21.80
2015,07,03,13,24,21.80
2015,07,03,13,25,21.80
2015,07,03,13,26,21.90
2015,07,03,13,27,21.90
2015,07,03,13,28,21.90
2015,07,03,13,29,21.80
2015,07,03,13,30,21.90
2015,07,03,13,31,21.90
2015,07,03,13,32,21.90
2015,07,03,13,33,21.90
2015,07,03,13,34,21.90
2015,07,03,13,35,21.80
2015,07,03,13,36,21.90
2015,07,03,13,37,21.90
2015,07,03,13,38,21.80
2015,07,03,13,39,21.80
2015,07,03,13,40,21.80
2015,07,03,13,41,21.90
2015,07,03,13,42,22.00
2015,07,03,13,43,22.00
2015,07,03,13,44,22.00
2015,07,03,13,45,21.90
2015,07,03,13,46,21.80
2015,07,03,13,47,21.70
2015,07,03,13,48,21.60
2015,07,03,13,49,21.70
2015,07,03,13,50,21.80
2015,07,03,13,51,21.80
2015,07,03,13,52,21.80
2015,07,03,13,53,21.70
2015,07,03,13,54,21.70
2015,07,03,13,55,21.70
2015,07,03,13,56,21.70
2015,07,03,13,57,21.80
2015,07,03,13,58,21.80
2015,07,03,13,59,21.90
2015,07,03,14,00,21.90
2015,07,03,14,01,21.90
2015,07,03,14,02,22.00
2015,07,03,14,03,22.10
2015,07,03,14,04,22.20
2015,07,03,14,05,22.30
2015,07,03,14,06,22.40
2015,07,03,14,07,22.30
2015,07,03,14,08,22.30
2015,07,03,14,09,22.20
2015,07,03,14,10,22.20
2015,07,03,14,11,22.20
2015,07,03,14,12,22.20
2015,07,03,14,13,22.20
2015,07,03,14,14,22.40
2015,07,03,14,15,22.60
2015,07,03,14,16,22.60
2015,07,03,14,17,22.60
2015,07,03,14,18,22.50
2015,07,03,14,19,22.60
2015,07,03,14,20,22.60
2015,07,03,14,21,22.50
2015,07,03,14,22,22.30
2015,07,03,14,23,22.20
2015,07,03,14,24,22.10
2015,07,03,14,25,22.10
2015,07,03,14,26,22.10
2015,07,03,14,27,22.10
2015,07,03,14,28,22.10
2015,07,03,14,29,22.10
2015,07,03,14,30,22.10
2015,07,03,14,31,22.00
2015,07,03,14,32,22.10
2015,07,03,14,33,22.00
2015,07,03,14,34,22.10
2015,07,03,14,35,22.10
2015,07,03,14,36,22.00
2015,07,03,14,37,21.90
2015,07,03,14,38,21.90
2015,07,03,14,39,21.90
2015,07,03,14,40,21.80
2015,07,03,14,41,21.80
2015,07,03,14,42,21.70
2015,07,03,14,43,21.80
2015,07,03,14,44,21.80
2015,07,03,14,45,21.90
2015,07,03,14,46,21.80
2015,07,03,14,47,21.80
2015,07,03,14,48,21.70
2015,07,03,14,49,21.70
2015,07,03,14,50,21.70
2015,07,03,14,51,21.80
2015,07,03,14,52,21.90
2015,07,03,14,53,22.00
2015,07,03,14,54,22.00
2015,07,03,14,55,21.90
2015,07,03,14,56,21.90
2015,07,03,14,57,21.80
2015,07,03,14,58,21.70
2015,07,03,14,59,21.70
2015,07,03,15,00,21.70
2015,07,03,15,01,21.70
2015,07,03,15,02,21.80
2015,07,03,15,03,21.80
2015,07,03,15,04,21.90
2015,07,03,15,05,22.00
2015,07,03,15,06,22.10
2015,07,03,15,07,22.20
2015,07,03,15,08,22.10
2015,07,03,15,09,22.00
2015,07,03,15,10,22.00
2015,07,03,15,11,22.00
2015,07,03,15,12,22.00
2015,07,03,15,13,22.00
2015,07,03,15,14,22.00
2015,07,03,15,15,22.00
2015,07,03,15,16,22.10
2015,07,03,15,17,22.10
2015,07,03,15,18,22.10
2015,07,03,15,19,22.10
2015,07,03,15,20,22.10
2015,07,03,15,21,22.10
2015,07,03,15,22,22.10
2015,07,03,15,23,22.10
2015,07,03,15,24,22.00
2015,07,03,15,25,21.80
2015,07,03,15,26,21.70
2015,07,03,15,27,21.70
2015,07,03,15,28,21.70
2015,07,03,15,29,21.80
2015,07,03,15,30,21.70
2015,07,03,15,31,21.70
2015,07,03,15,32,21.70
2015,07,03,15,33,21.70
2015,07,03,15,34,21.60
2015,07,03,15,35,21.70
2015,07,03,15,36,21.80
2015,07,03,15,37,21.80
2015,07,03,15,38,21.80
2015,07,03,15,39,21.70
2015,07,03,15,40,21.70
2015,07,03,15,41,21.70
2015,07,03,15,42,21.60
2015,07,03,15,43,21.70
2015,07,03,15,44,21.70
2015,07,03,15,45,21.80
2015,07,03,15,46,21.80
2015,07,03,15,47,21.90
2015,07,03,15,48,21.90
2015,07,03,15,49,22.00
2015,07,03,15,50,22.10
2015,07,03,15,51,22.20
2015,07,03,15,52,22.20
2015,07,03,15,53,22.30
2015,07,03,15,54,22.30
2015,07,03,15,55,22.30
2015,07,03,15,56,22.30
2015,07,03,15,57,22.30
2015,07,03,15,58,22.40
2015,07,03,15,59,22.40
2015,07,03,16,00,22.40
2015,07,03,16,01,22.50
2015,07,03,16,02,22.50
2015,07,03,16,03,22.50
2015,07,03,16,04,22.60
2015,07,03,16,05,22.60
2015,07,03,16,06,22.60
2015,07,03,16,07,22.60
2015,07,03,16,08,22.70
2015,07,03,16,09,22.70
2015,07,03,16,10,22.80
2015,07,03,16,11,22.90
2015,07,03,16,12,22.90
2015,07,03,16,13,22.90
2015,07,03,16,14,23.00
2015,07,03,16,15,23.10
2015,07,03,16,16,23.00
2015,07,03,16,17,22.90
2015,07,03,16,18,22.90
2015,07,03,16,19,22.90
2015,07,03,16,20,22.90
2015,07,03,16,21,22.90
2015,07,03,16,22,22.80
2015,07,03,16,23,22.70
2015,07,03,16,24,22.70
2015,07,03,16,25,22.70
2015,07,03,16,26,22.70
2015,07,03,16,27,22.80
2015,07,03,16,28,22.90
2015,07,03,16,29,22.90
2015,07,03,16,30,22.90
2015,07,03,16,31,23.00
2015,07,03,16,32,23.00
2015,07,03,16,33,22.90
2015,07,03,16,34,22.70
2015,07,03,16,35,22.60
2015,07,03,16,36,22.60
2015,07,03,16,37,22.60
2015,07,03,16,38,22.60
2015,07,03,16,39,22.60
2015,07,03,16,40,22.60
2015,07,03,16,41,22.60
2015,07,03,16,42,22.70
2015,07,03,16,43,22.70
2015,07,03,16,44,22.80
2015,07,03,16,45,22.80
2015,07,03,16,46,22.70
2015,07,03,16,47,22.70
2015,07,03,16,48,22.70
2015,07,03,16,49,22.70
2015,07,03,16,50,22.80
2015,07,03,16,51,22.80
2015,07,03,16,52,22.80
2015,07,03,16,53,22.90
2015,07,03,16,54,22.90
2015,07,03,16,55,23.00
2015,07,03,16,56,23.10
2015,07,03,16,57,23.10
2015,07,03,16,58,23.00
2015,07,03,16,59,22.90
2015,07,03,17,00,22.90
2015,07,03,17,01,23.00
2015,07,03,17,02,23.00
2015,07,03,17,03,23.10
2015,07,03,17,04,23.00
2015,07,03,17,05,22.90
2015,07,03,17,06,22.90
2015,07,03,17,07,22.90
2015,07,03,17,08,22.90
2015,07,03,17,09,22.90
2015,07,03,17,10,22.90
2015,07,03,17,11,22.90
2015,07,03,17,12,22.90
2015,07,03,17,13,22.90
2015,07,03,17,14,22.80
2015,07,03,17,15,22.70
2015,07,03,17,16,22.70
2015,07,03,17,17,22.60
2015,07,03,17,18,22.60
2015,07,03,17,19,22.60